Bloomington, IN

11:14 AM EDT on March 25, 2017 (GMT -0400)
Monroe County

Weather History for KBMG - March, 2014

Change the Weather History Date:

Wednesday, March 19, 2014

  Actual Average Record
Temperature  
Mean Temperature 45 °F 44 °F  
Max Temperature 53 °F 56 °F 84 °F (2012)
Min Temperature 37 °F 33 °F 24 °F (2006)
Degree Days  
Heating Degree Days 20 21  
Month to date heating degree days 541 464  
Since 1 July heating degree days 5103 4532  
Cooling Degree Days 0 0  
Month to date cooling degree days 0 0  
Year to date cooling degree days 0 0  
Moisture  
Dew Point 37 °F    
Average Humidity 72    
Maximum Humidity 82    
Minimum Humidity 61    
Precipitation  
Precipitation T in 0.14 in 1.07 in (2008)
Month to date precipitation 0.90 2.01  
Year to date precipitation 5.55 8.08  
Sea Level Pressure  
Sea Level Pressure 29.87 in    
Wind  
Wind Speed 15 mph (WSW)    
Max Wind Speed 26 mph    
Max Gust Speed 35 mph    
Visibility 10 miles    
Events      
T = Trace of Precipitation, MM = Missing Value Source: NWS Daily Summary

Daily Weather History Graph

Daily Weather History Graph

Search for Another Location

Airport or City:

Trip Planner

Search our weather history database for the weather conditions in past years. The results will help you decide how hot, cold, wet, or windy it might be!

Date:

Astronomy

Mar. 19, 2014 Rise Set
Actual Time 7:51 AM EDT 7:57 PM EDT
Civil Twilight 7:24 AM EDT 8:24 PM EDT
Nautical Twilight 6:53 AM EDT 8:55 PM EDT
Astronomical Twilight 6:22 AM EDT 9:27 PM EDT
Moon 11:13 PM EDT (3/19) 9:18 AM EDT (3/19)
Length of Visible Light 12h 59m
Length of Day
12h 05m
Waning Gibbous, 91% of the Moon is Illuminated
Mar 19
Waning Gibbous
Mar 23
Last Quarter
Mar 30
New
Apr 7
First Quarter
Apr 15
Full

Hourly Weather History & Observations

Time (EDT) Temp. Windchill Dew Point Humidity Pressure Visibility Wind Dir Wind Speed Gust Speed Precip Events Conditions
12:18 AM 46.0 °F 41.4 °F 39.9 °F 79% 29.79 in 10.0 mi South 9.2 mph - N/A   Overcast
12:53 AM 46.0 °F 41.9 °F 41.0 °F 83% 29.81 in 10.0 mi South 8.1 mph - N/A   Overcast
1:53 AM 48.0 °F - 41.0 °F 77% 29.80 in 10.0 mi South 15.0 mph 21.9 mph N/A   Overcast
2:53 AM 48.0 °F - 41.0 °F 77% 29.78 in 10.0 mi SSW 15.0 mph 23.0 mph N/A   Overcast
3:53 AM 48.0 °F - 41.0 °F 77% 29.75 in 10.0 mi South 15.0 mph 23.0 mph N/A   Mostly Cloudy
4:53 AM 48.0 °F - 41.0 °F 77% 29.74 in 10.0 mi South 19.6 mph 26.5 mph N/A   Mostly Cloudy
5:53 AM 50.0 °F - 41.0 °F 71% 29.75 in 10.0 mi South 15.0 mph 25.3 mph N/A   Mostly Cloudy
6:53 AM 50.0 °F - 41.0 °F 71% 29.74 in 10.0 mi South 16.1 mph 21.9 mph N/A   Overcast
7:53 AM 50.0 °F - 42.1 °F 74% 29.74 in 10.0 mi SSW 16.1 mph 21.9 mph N/A   Overcast
8:53 AM 50.0 °F - 43.0 °F 77% 29.75 in 10.0 mi SSW 15.0 mph 24.2 mph N/A   Overcast
9:53 AM 50.0 °F - 43.0 °F 77% 29.74 in 10.0 mi SSW 15.0 mph - N/A   Overcast
10:53 AM 50.0 °F - 43.0 °F 77% 29.75 in 10.0 mi SSW 16.1 mph 25.3 mph N/A   Overcast
11:53 AM 51.1 °F - 43.0 °F 74% 29.76 in 10.0 mi SW 15.0 mph 25.3 mph N/A   Overcast
12:53 PM 53.1 °F - 43.0 °F 69% 29.77 in 10.0 mi SW 13.8 mph - N/A   Overcast
1:53 PM 51.1 °F - 41.0 °F 68% 29.80 in 10.0 mi West 21.9 mph 31.1 mph 0.00 in   Overcast
2:53 PM 48.9 °F - 39.0 °F 69% 29.83 in 10.0 mi West 20.7 mph 28.8 mph N/A   Overcast
3:27 PM 48.9 °F - 37.0 °F 64% 29.84 in 10.0 mi WNW 11.5 mph 27.6 mph N/A   Overcast
3:42 PM 48.9 °F - 37.0 °F 64% 29.85 in 10.0 mi West 11.5 mph 25.3 mph N/A   Overcast
3:53 PM 48.9 °F - 36.0 °F 61% 29.85 in 10.0 mi West 16.1 mph 27.6 mph N/A   Overcast
4:00 PM 48.9 °F - 36.0 °F 61% 29.85 in 10.0 mi West 16.1 mph 27.6 mph N/A   Overcast
4:10 PM 48.9 °F - 36.0 °F 61% 29.86 in 10.0 mi West 12.7 mph 24.2 mph N/A   Overcast
4:53 PM 48.9 °F - 35.1 °F 59% 29.88 in 10.0 mi West 21.9 mph 31.1 mph N/A   Overcast
5:00 PM 48.0 °F - 34.0 °F 58% 29.89 in 10.0 mi West 20.7 mph 31.1 mph N/A   Overcast
5:15 PM 46.9 °F - 35.1 °F 63% 29.90 in 10.0 mi West 17.3 mph 27.6 mph N/A   Overcast
5:53 PM 45.0 °F 38.2 °F 35.1 °F 68% 29.93 in 7.0 mi West 15.0 mph 29.9 mph N/A   Overcast
6:53 PM 44.1 °F 38.1 °F 33.1 °F 65% 29.96 in 7.0 mi WNW 11.5 mph 28.8 mph N/A   Overcast
7:53 PM 43.0 °F 37.7 °F 32.0 °F 65% 29.99 in 8.0 mi WNW 9.2 mph 25.3 mph N/A   Overcast
8:53 PM 42.1 °F 33.9 °F 30.9 °F 65% 30.02 in 10.0 mi WNW 17.3 mph 25.3 mph N/A   Overcast
9:23 PM 41.0 °F 33.1 °F 30.0 °F 65% 30.02 in 10.0 mi WNW 15.0 mph 21.9 mph N/A   Overcast
9:45 PM 41.0 °F 33.1 °F 30.0 °F 65% 30.03 in 10.0 mi WNW 15.0 mph 19.6 mph N/A   Overcast
9:53 PM 39.9 °F 31.8 °F 28.9 °F 65% 30.05 in 10.0 mi WNW 15.0 mph 24.2 mph N/A   Overcast
10:53 PM 39.0 °F 33.4 °F 28.9 °F 67% 30.08 in 9.0 mi NW 8.1 mph 17.3 mph N/A   Overcast
11:06 PM 37.9 °F 31.5 °F 28.0 °F 68% 30.07 in 9.0 mi NW 9.2 mph 16.1 mph N/A   Overcast
11:53 PM 37.0 °F 27.7 °F 26.1 °F 65% 30.09 in 10.0 mi WNW 16.1 mph 26.5 mph N/A   Overcast